Location: Arthel
(47.2451°N, 3.4050°E)
Time: 21:28:09
(UTC+00:00)

Daily predictions for brighter satellites

Satellite Brightness Start Highest point End
(mag) Time Altitude Azimuth Time Altitude Azimuth Time Altitude Azimuth
Cosmos 2322 Rocket 4.4 16:26:09 10° WNW 16:28:36 13° NNW 16:31:05 10° N
Cosmos 1500 3.3 16:25:26 10° N 16:29:12 82° W 16:32:57 10° S
Cosmos 2219 Rocket 3.3 16:24:10 10° SW 16:29:28 41° NW 16:34:50 10° NNE
Cosmos 1536 2.8 16:25:38 10° N 16:29:38 61° ENE 16:33:34 10° SSE
STARLINK-67 3.8 16:28:14 10° NW 16:30:40 27° N 16:33:06 10° ENE
Cosmos 1812 2.7 16:27:02 10° S 16:30:53 85° E 16:34:47 10° N
Feng Yun 1-1 Rocket 4.5 16:26:23 10° SE 16:31:28 44° ENE 16:36:37 10° N
Cosmos 1689 Rocket 2.2 16:29:57 10° NNE 16:33:00 84° WNW 16:35:59 10° SSW
Cosmos 1782 Rocket 4.4 16:30:20 10° NNE 16:34:08 28° ENE 16:37:54 10° SE
Lacrosse 5 rocket 2.5 16:31:33 10° W 16:35:26 32° NNW 16:39:08 10° NE
Cosmos 2333 Rocket 3.5 16:30:21 10° WSW 16:35:42 38° NW 16:41:05 10° NNE
FALCON 9 DEB 3.2 16:32:49 10° WSW 16:36:19 73° NNW 16:39:49 10° ENE
STARLINK-46 4.1 16:37:04 10° WNW 16:39:16 22° N 16:41:26 10° NE
SL-4 R/B 2.4 16:36:14 10° WNW 16:39:46 42° N 16:43:36 10° ENE
Radarsat Rocket 4.1 16:35:48 10° SSE 16:41:48 81° WSW 16:47:40 10° NNW
Cosmos 1862 Rocket 3.7 16:37:41 10° SSW 16:42:03 81° W 16:46:30 10° N
Lacrosse 5 3.8 16:42:31 10° SSE 16:45:05 14° ESE 16:47:38 10° E
Cosmos 1703 Rocket 4.0 16:41:55 10° SSE 16:46:07 42° E 16:50:22 10° NNE
Okean 1 4.4 16:45:10 10° SE 16:48:22 24° E 16:51:36 10° NE
Cosmos 405 Rocket 4.3 16:49:03 10° NNE 16:51:05 14° ENE 16:53:04 10° E
Okean 2 Rocket 4.3 16:48:09 10° NNE 16:51:37 21° ENE 16:55:05 10° ESE
Aureole 1 Rocket 2.2 16:51:03 10° SSW 16:54:04 81° ESE 16:57:36 10° NNE
ATLAS 2AS CENTAUR R/B 4.2 16:47:31 10° W 16:54:27 30° NNW 17:01:15 10° NE
STARLINK-60 3.7 16:52:30 10° W 16:55:46 46° NNW 16:58:26 14° NE
NOAA 12 4.4 16:50:52 10° SE 16:55:52 45° ENE 17:00:53 10° N
BREEZE-M R/B 3.1 16:50:00 10° WNW 16:56:22 69° N 16:59:21 13° E
Cosmos 1980 4.3 16:51:11 10° SW 16:56:43 57° WNW 17:02:20 10° NNE
Sich 1 Rocket 4.0 16:54:35 10° N 16:58:43 38° ENE 17:02:48 10° SE
Cosmos 1441 Rocket 3.1 16:58:16 10° N 17:02:04 70° ENE 17:05:47 10° SSE
H-2A R/B 2.5 17:01:35 10° SSE 17:05:14 73° ENE 17:08:56 10° N
SMAP 3.0 17:02:04 10° SSE 17:06:44 83° ENE 17:11:25 10° NNW
Cosmos 2195 Rocket 4.5 17:02:36 10° S 17:08:47 68° E 17:15:04 10° NNE
Cosmos 2297 3.8 17:03:29 10° NNW 17:09:13 81° WSW 17:14:52 10° SSE
Okean O Rocket 3.5 17:06:03 10° SSW 17:09:59 34° W 17:13:57 10° NNW
Cosmos 1627 Rocket 4.5 17:04:10 10° S 17:10:10 63° E 17:16:15 10° NNE
COBE Rocket 3.7 17:05:32 10° NNE 17:10:12 70° ESE 17:14:56 10° S
STARLINK-52 3.6 17:07:41 10° W 17:11:09 55° NNW 17:13:24 20° NE
Okean 1-7 3.0 17:06:56 10° S 17:11:14 64° E 17:15:36 10° NNE
Cosmos 1666 3.2 17:09:14 10° NNW 17:12:56 61° W 17:16:37 10° S
CZ-4 R/B 2.2 17:10:58 10° ESE 17:14:10 25° ENE 17:17:21 10° N
Cosmos 1867 3.5 17:09:00 10° NW 17:14:30 83° NE 17:19:57 10° SE
USA 215 3.3 17:10:07 14° NE 17:15:55 84° SE 17:22:29 10° SW
BREEZE-M DEB (TANK) 2.4 17:11:19 10° W 17:16:25 71° S 17:18:32 17° ESE
Cosmos 1908 Rocket 4.1 17:12:26 10° NNW 17:16:47 62° W 17:21:03 10° S
YAOGAN 6 3.2 17:14:12 10° SE 17:17:25 32° ENE 17:20:41 10° N
Abrixas rocket 3.2 17:15:40 10° SW 17:18:22 30° SSE 17:19:38 22° ESE
Cosmos 2242 Rocket 4.4 17:14:34 10° SSW 17:19:04 55° WNW 17:23:35 10° N
STARLINK-29 3.8 17:15:53 10° W 17:19:20 47° NNW 17:21:14 23° NE
Cosmos 614 Rocket 3.9 17:16:26 10° SSW 17:21:31 83° ESE 17:26:37 10° NNE
Cosmos 1092 Rocket 4.1 17:16:30 10° S 17:22:47 83° W 17:29:04 10° N
Cosmos 1300 Rocket 4.3 17:19:48 10° N 17:23:37 30° ENE 17:27:25 10° SE
Cosmos 1190 Rocket 3.9 17:19:03 10° SSW 17:24:13 73° ESE 17:29:07 12° NNE
Cosmos 1975 3.0 17:20:24 10° N 17:24:17 46° ENE 17:28:09 10° SSE
COSMO-SKYMED 1 3.2 17:23:33 18° NE 17:26:13 35° E 17:30:13 10° SSE
Cosmos 676 Rocket 4.2 17:22:19 10° S 17:27:15 47° ESE 17:30:53 18° NE
STARLINK-48 4.4 17:24:23 10° SSW 17:27:55 34° SE 17:29:22 25° E
YAOGAN 1 3.2 17:25:51 10° SE 17:29:41 32° ENE 17:33:33 10° N
YAOGAN 3 4.5 17:26:01 10° SSE 17:30:22 81° ENE 17:34:46 10° NNW
Cosmos 1655 Rocket 4.3 17:24:38 10° SSE 17:30:29 42° E 17:36:18 10° NNE
Cosmos 1954 Rocket 4.2 17:27:39 10° S 17:32:37 50° ESE 17:36:01 20° NE
Meteor 2-9 Rocket 4.3 17:28:51 10° N 17:34:39 57° ENE 17:40:18 10° SSE
Cosmos 921 Rocket 4.1 17:31:17 10° NNW 17:35:27 48° WSW 17:39:40 10° S
Okean-O 2.6 17:32:47 10° SSE 17:37:13 88° WSW 17:41:41 10° NNW
Okean 3 3.9 17:33:24 10° SSE 17:37:16 38° E 17:38:35 30° NE
Lacrosse 4 Rocket 3.5 17:35:08 10° N 17:36:09 13° NNE 17:36:09 13° NNE
Cosmos 1943 4.0 17:36:51 10° SSE 17:41:41 30° ESE 17:42:49 28° E
Cosmos 1656 Rocket 4.3 17:40:21 10° NNW 17:45:13 31° NE 17:46:03 30° ENE
Cosmos 1140 Rocket 3.4 17:45:08 10° SSW 17:50:17 85° WNW 17:54:14 18° NNE
USA 267 3.4 17:44:07 10° SE 17:50:40 75° SW 17:57:13 10° NW
Cosmos 2369 Rocket 2.1 17:47:01 10° NNW 17:52:40 71° ENE 17:58:19 10° SE
NOSS 3-1 (C) 4.0 17:45:44 10° NW 17:53:03 65° NE 18:01:10 11° SE
Cosmos 1743 3.6 17:49:56 10° NNW 17:53:42 50° W 17:57:27 10° S
STARLINK-43 3.3 17:52:29 10° WSW 17:56:11 75° NNW 17:56:49 57° NE
S3M 3.8 17:51:11 10° N 17:57:23 73° E 18:03:30 10° SSE
Envisat 3.4 17:52:35 10° S 17:57:37 65° WSW 18:02:41 10° NNW
Cosmos 2266 Rocket 4.2 17:54:44 10° SSE 18:00:51 49° E 18:05:44 16° NNE
SL-16 R/B 3.0 17:56:04 10° SW 18:01:35 50° WNW 18:06:14 15° NNE
Meteor 1-18 Rocket 4.4 17:56:37 10° SSW 18:02:16 72° WNW 18:07:53 10° N
Cosmos 468 Rocket 4.1 17:58:20 10° NNW 18:03:24 50° ENE 18:04:47 40° ESE
Cosmos 2151 Rocket 3.4 17:59:12 10° N 18:03:36 69° E 18:07:58 10° SSE
IRIDIUM 103 4.3 17:59:12 10° SSE 18:04:16 55° E 18:07:13 24° NNE
USA 229 DEB 3.8 17:57:19 10° NW 18:04:33 74° NE 18:10:45 16° SE
USA 229 3.8 17:57:25 10° NW 18:04:38 73° NE 18:10:44 17° SE
STARLINK-67 3.9 18:02:28 10° WNW 18:04:17 36° WNW 18:04:17 36° WNW
Cosmos 1461 4.4 18:02:21 10° S 18:04:07 21° SSE 18:04:07 21° SSE
Cosmos 1553 Rocket 4.2 18:01:02 10° NNW 18:07:26 76° W 18:13:49 10° S
USA 81 4.3 18:02:38 10° SSE 18:07:16 43° E 18:07:16 43° E
Cosmos 407 Rocket 4.5 18:02:42 10° SW 18:07:42 45° WNW 18:12:09 13° N
Cosmos 1603 3.7 18:03:16 10° SSW 18:08:54 64° ESE 18:10:51 40° NE
Cosmos 2237 Rocket 4.2 18:04:40 10° W 18:09:02 22° NW 18:13:26 10° N
NOSS 3-1 (A) 4.0 18:02:47 10° NW 18:10:01 59° NE 18:14:13 30° ESE
Cosmos 1943 Rocket 2.3 18:05:25 10° NNW 18:11:03 74° WSW 18:16:36 10° SSE
SKYMED 2 3.7 18:12:12 28° N 18:14:28 76° WNW 18:18:47 10° SSW
Lacrosse 5 rocket 3.1 18:12:27 10° NW 18:15:14 20° N 18:15:14 20° N
Cosmos 1850 Rocket 4.1 18:12:04 10° S 18:16:59 51° ESE 18:16:59 51° ESE
SL-4 R/B 2.0 18:15:51 10° WNW 18:19:21 69° NNW 18:19:21 69° NNW
STARLINK-80 3.6 18:16:44 10° WSW 18:20:09 69° W 18:20:09 69° W
CZ-4C R/B 2.1 18:17:12 10° SSW 18:22:08 60° ESE 18:22:33 58° E
IRIDIUM 106 4.2 18:17:19 10° S 18:22:32 78° E 18:25:24 27° N
CSL-04 Rocket 3.7 18:21:56 10° SSE 18:27:12 78° WSW 18:32:34 10° NNW
Lacrosse 5 1.8 18:22:11 10° SW 18:27:15 70° SE 18:27:22 70° SE
Cosmos 405 Rocket 3.5 18:23:47 10° NNW 18:27:22 48° W 18:30:58 10° S
Okean 2 Rocket 4.3 18:25:39 10° NNW 18:29:54 43° W 18:34:10 10° SSW
USA 116 4.3 18:30:02 38° N 18:32:06 82° WNW 18:36:59 10° SSW
Meteor 2-4 Rocket 3.8 18:27:57 10° SSW 18:33:49 81° W 18:37:10 26° N
Cosmos 883 Rocket 4.5 18:37:43 10° N 18:44:05 85° W 18:50:21 10° S
Gbstr 26 Del rocket 3.8 18:37:56 10° SW 18:44:54 70° SSE 18:45:06 69° SE
Cosmos 2315 Rocket 3.8 18:40:09 10° N 18:46:32 82° E 18:52:47 10° S
Cosmos 2344 4.3 18:38:12 10° NW 18:47:49 85° NE 18:58:09 19° SE
ATLAS 2AS CENTAUR R/B 4.3 18:41:53 10° NW 18:48:04 24° N 18:49:12 23° NNE
Cosmos 1763 Rocket 3.9 18:43:57 10° NNW 18:47:49 53° NNW 18:47:49 53° NNW
CZ-4 R/B 3.2 18:45:44 10° SSW 18:49:06 28° W 18:52:30 10° NW
Meteor 2-8 Rocket 4.3 18:44:22 10° N 18:50:28 85° W 18:56:32 10° S
USA 215 3.8 18:57:28 43° NNE 18:58:40 47° NNW 19:04:52 10° W
YAOGAN 1 4.5 19:02:03 10° SSW 19:05:47 28° W 19:09:33 10° NW
Cosmos 1943 4.1 19:20:03 10° SW 19:24:41 45° W 19:24:41 45° W
CZ-4C R/B 4.5 20:06:10 10° W 20:07:47 19° W 20:07:47 19° W
